Погода в Коронейшене

Канада     52°05′39″N   111°26′56″W
темп.,
°C
ветер,
м/с
пор.,
м/с
влажн.,
%
обл.,
%
осадки,
мм/ч
давл.,
гПа
погр.,
м
18 сентября, сб
сб1800:00+16юз71739100 0.0 994486
03:00+16ююз91750100 0.0 994532
06:00+19ююз122041100 0.0 992791
09:00+19ююз121932100 0.0 991977
12:00+22юз111432100 0.0 9901605
15:00+22сз6836100 0.0 9901360
18:00+17с3545100 0.0 993461
21:00+13ссв3856100 0.4 994224
19 сентября, вс
вс1900:00+10сз81377100 0.8 997592
03:00+10сз4983100 5.1 999571
06:00+8сз41183100 5.1 1002473
09:00+8сз5877100 0.0 1004434
12:00+13зсз465411 0.0 1004927
15:00+16зсз5836100 0.0 10052387
18:00+15сз463665 0.0 10052071
21:00+7з5886100 7.6 1012261
20 сентября, пн
пн2000:00+7зсз378746 7.8 1012194
03:00+6зсз3891100 0.0 1015283
06:00+5зсз369472 0.0 1017169
09:00+7зсз47825 0.0 1018316
12:00+12зсз455627 0.0 10181143
15:00+14з574583 0.1 10171849
18:00+14зсз344636 0.1 1017858
21:00+10сз01586 0.0 101810
21 сентября, вт
вт2100:00+8ююв346432 0.0 101950
03:00+7ю4868100 0.0 1019126
06:00+7ю377032 0.0 1018111
09:00+10ююз355861 0.0 1018147
12:00+17юз453386 0.0 1015578
15:00+21ююз55275 0.0 1013934
18:00+19ююз58325 0.0 1012439
21:00+14ю410425 0.0 1012158
22 сентября, ср
ср2200:00+12ю4124615 0.0 1010212
03:00+11зюз345343 0.0 100961
06:00+10з3361100 0.0 100927
09:00+13сз3756100 0.0 1008177
12:00+17ссз5746100 0.0 1009559
15:00+18с454998 0.0 1010868
18:00+17сз3547100 0.0 1011530
21:00+12юз358192 1.1 1012128